This is the latest recevied weather packets stored in our database for station/object PU5FJO-13. If no packets are shown the sender has not sent any weather packets the latest 10 day(s).
| Time | Temp. | Humidity | Pressure | Rain* | Wind** | Luminosity | Snow |
|---|---|---|---|---|---|---|---|
| 1777584369 | 22.22° C | 72% | 1019 hPa | - | - | - | - |
| 1777583769 | 22.78° C | 71% | 1018.9 hPa | - | - | - | - |
| 1777583169 | 22.22° C | 72% | 1018.8 hPa | - | - | - | - |
| 1777582569 | 22.78° C | 70% | 1018.8 hPa | - | - | - | - |
| 1777581969 | 22.78° C | 70% | 1018.7 hPa | - | - | - | - |
| 1777581369 | 22.78° C | 69% | 1018.5 hPa | - | - | - | - |
| 1777580769 | 22.78° C | 69% | 1018.5 hPa | - | - | - | - |
| 1777580169 | 22.78° C | 69% | 1018.4 hPa | - | - | - | - |
| 1777579569 | 23.33° C | 69% | 1018.4 hPa | - | - | - | - |
| 1777578969 | 23.33° C | 68% | 1018.3 hPa | - | - | - | - |
| 1777578369 | 23.89° C | 67% | 1018.2 hPa | - | - | - | - |
| 1777577769 | 23.33° C | 68% | 1018.1 hPa | - | - | - | - |
| 1777577169 | 23.89° C | 66% | 1018.2 hPa | - | - | - | - |
| 1777576569 | 23.89° C | 66% | 1018.1 hPa | - | - | - | - |
| 1777575969 | 23.89° C | 66% | 1018 hPa | - | - | - | - |
| 1777575369 | 23.89° C | 66% | 1018 hPa | - | - | - | - |
| 1777574771 | 23.89° C | 66% | 1017.9 hPa | - | - | - | - |
| 1777574168 | 23.89° C | 66% | 1017.9 hPa | - | - | - | - |
| 1777573568 | 23.89° C | 67% | 1017.9 hPa | - | - | - | - |
| 1777572968 | 24.44° C | 67% | 1017.9 hPa | - | - | - | - |
| 1777572369 | 23.89° C | 67% | 1017.7 hPa | - | - | - | - |
| 1777571769 | 23.89° C | 67% | 1017.7 hPa | - | - | - | - |
| 1777571168 | 23.89° C | 64% | 1017.7 hPa | - | - | - | - |
| 1777570569 | 23.89° C | 65% | 1017.8 hPa | - | - | - | - |
| 1777569969 | 23.89° C | 67% | 1017.8 hPa | - | - | - | - |
* Rain since midnight (hover to see other rain measurements)
** Current wind speed in m/s (hover to see current wind gust speed)